TimeCDT,TemperatureF,Dew PointF,Humidity,Sea Level PressureIn,VisibilityMPH,Wind Direction,Wind SpeedMPH,Gust SpeedMPH,PrecipitationIn,Events,Conditions,WindDirDegrees,DateUTC
12:15 AM,52.0,24.4,34,29.83,10.0,NNW,4.6,-,N/A,,Clear,330,2012-10-09 05:15:00
12:35 AM,49.1,26.8,42,29.83,10.0,NE,8.1,-,N/A,,Clear,40,2012-10-09 05:35:00
12:55 AM,52.0,30.7,44,29.83,10.0,NE,12.7,-,N/A,,Clear,50,2012-10-09 05:55:00
1:15 AM,52.0,31.8,46,29.84,10.0,NE,8.1,-,N/A,,Clear,50,2012-10-09 06:15:00
1:55 AM,49.1,32.0,52,29.83,10.0,ENE,9.2,-,N/A,,Clear,70,2012-10-09 06:55:00
2:15 AM,50.4,32.4,50,29.83,10.0,East,8.1,-,N/A,,Clear,90,2012-10-09 07:15:00
3:15 AM,40.8,30.4,66,29.83,10.0,Calm,Calm,-,N/A,,Clear,0,2012-10-09 08:15:00
3:35 AM,42.3,31.6,66,29.83,10.0,NNW,3.5,-,N/A,,Clear,330,2012-10-09 08:35:00
3:55 AM,40.5,31.3,70,29.82,10.0,North,6.9,-,N/A,,Clear,10,2012-10-09 08:55:00
4:15 AM,38.8,31.6,75,29.82,10.0,North,6.9,-,N/A,,Clear,10,2012-10-09 09:15:00
4:35 AM,40.1,32.0,73,29.82,10.0,North,6.9,-,N/A,,Clear,10,2012-10-09 09:35:00
4:55 AM,39.6,32.0,74,29.81,10.0,North,8.1,-,N/A,,Clear,10,2012-10-09 09:55:00
5:15 AM,42.4,33.4,70,29.83,10.0,North,9.2,-,N/A,,Clear,350,2012-10-09 10:15:00
5:35 AM,41.7,34.3,75,29.84,10.0,North,10.4,-,N/A,,Clear,360,2012-10-09 10:35:00
5:55 AM,43.2,35.8,75,29.84,10.0,North,10.4,-,N/A,,Clear,360,2012-10-09 10:55:00
6:15 AM,43.7,36.7,76,29.84,10.0,North,12.7,-,N/A,,Clear,360,2012-10-09 11:15:00
6:35 AM,45.5,38.3,76,29.85,10.0,North,13.8,-,N/A,,Clear,10,2012-10-09 11:35:00
6:55 AM,45.5,38.5,76,29.86,10.0,North,15.0,-,N/A,,Clear,10,2012-10-09 11:55:00
7:15 AM,45.9,39.2,78,29.86,10.0,NNE,12.7,-,N/A,,Clear,20,2012-10-09 12:15:00
7:35 AM,46.6,39.7,77,29.89,10.0,North,15.0,-,N/A,,Clear,10,2012-10-09 12:35:00
7:55 AM,48.2,40.5,75,29.89,10.0,North,16.1,-,N/A,,Clear,10,2012-10-09 12:55:00
8:15 AM,48.6,40.5,74,29.91,10.0,North,17.3,-,N/A,,Clear,10,2012-10-09 13:15:00
8:35 AM,48.7,40.6,74,29.92,10.0,North,17.3,24.2,N/A,,Clear,10,2012-10-09 13:35:00
8:55 AM,49.3,40.5,72,29.93,10.0,North,20.7,25.3,N/A,,Clear,10,2012-10-09 13:55:00
9:15 AM,49.8,39.9,69,29.95,10.0,North,19.6,29.9,N/A,,Clear,10,2012-10-09 14:15:00
9:35 AM,50.0,39.2,66,29.97,10.0,North,24.2,31.1,N/A,,Clear,360,2012-10-09 14:35:00
9:55 AM,50.0,39.0,66,29.98,10.0,North,20.7,29.9,N/A,,Clear,360,2012-10-09 14:55:00
10:15 AM,50.0,39.2,66,29.99,10.0,North,23.0,31.1,N/A,,Clear,10,2012-10-09 15:15:00
10:35 AM,50.5,38.5,63,30.00,10.0,North,25.3,32.2,N/A,,Clear,10,2012-10-09 15:35:00
10:55 AM,50.4,37.8,62,30.01,10.0,North,25.3,32.2,N/A,,Scattered Clouds,360,2012-10-09 15:55:00
11:15 AM,50.9,36.7,58,30.02,10.0,North,24.2,32.2,N/A,,Scattered Clouds,10,2012-10-09 16:15:00
11:35 AM,50.9,36.5,58,30.02,10.0,North,21.9,32.2,N/A,,Clear,10,2012-10-09 16:35:00
11:55 AM,53.6,36.5,52,30.02,10.0,North,24.2,31.1,N/A,,Mostly Cloudy,10,2012-10-09 16:55:00
12:15 PM,53.4,36.1,52,30.04,10.0,NNE,26.5,-,N/A,,Scattered Clouds,20,2012-10-09 17:15:00
12:35 PM,53.6,33.8,47,30.04,10.0,North,18.4,23.0,N/A,,Clear,10,2012-10-09 17:35:00
12:55 PM,54.7,31.8,42,30.04,10.0,North,20.7,31.1,N/A,,Clear,10,2012-10-09 17:55:00
1:15 PM,55.2,29.5,37,30.04,10.0,North,25.3,28.8,N/A,,Clear,10,2012-10-09 18:15:00
1:35 PM,56.1,27.1,33,30.04,10.0,NNE,20.7,28.8,N/A,,Clear,20,2012-10-09 18:35:00
1:55 PM,57.4,24.3,28,30.04,10.0,North,18.4,28.8,N/A,,Clear,360,2012-10-09 18:55:00
2:15 PM,57.4,21.4,25,30.04,10.0,North,19.6,28.8,N/A,,Clear,360,2012-10-09 19:15:00
2:35 PM,57.9,20.1,23,30.04,10.0,North,18.4,25.3,N/A,,Clear,350,2012-10-09 19:35:00
2:55 PM,57.2,20.5,24,30.05,10.0,North,15.0,27.6,N/A,,Clear,350,2012-10-09 19:55:00
3:15 PM,55.8,21.0,26,30.05,10.0,North,15.0,24.2,N/A,,Clear,360,2012-10-09 20:15:00
3:35 PM,56.3,21.7,26,30.06,10.0,North,17.3,-,N/A,,Clear,360,2012-10-09 20:35:00
3:55 PM,56.3,22.1,27,30.07,10.0,North,20.7,25.3,N/A,,Clear,360,2012-10-09 20:55:00
4:15 PM,55.2,22.8,28,30.07,10.0,North,13.8,21.9,N/A,,Clear,350,2012-10-09 21:15:00
4:35 PM,55.9,23.2,28,30.06,10.0,NNW,9.2,21.9,N/A,,Clear,340,2012-10-09 21:35:00
4:55 PM,55.9,23.2,28,30.06,10.0,NNW,12.7,19.6,N/A,,Clear,330,2012-10-09 21:55:00
5:15 PM,56.3,22.8,27,30.07,10.0,NNW,15.0,20.7,N/A,,Clear,340,2012-10-09 22:15:00
5:35 PM,55.6,23.0,28,30.06,10.0,North,11.5,-,N/A,,Clear,360,2012-10-09 22:35:00
5:55 PM,55.6,23.2,29,30.07,10.0,North,5.8,-,N/A,,Clear,10,2012-10-09 22:55:00
6:15 PM,55.4,24.1,30,30.07,10.0,NNW,8.1,-,N/A,,Clear,330,2012-10-09 23:15:00
6:35 PM,54.5,24.3,31,30.07,10.0,NNW,5.8,-,N/A,,Clear,330,2012-10-09 23:35:00
6:55 PM,52.5,24.4,34,30.08,10.0,NNW,4.6,-,N/A,,Clear,330,2012-10-09 23:55:00
7:15 PM,50.4,24.6,37,30.09,10.0,NW,4.6,-,N/A,,Clear,320,2012-10-10 00:15:00
7:35 PM,49.5,24.3,37,30.10,10.0,NNW,5.8,-,N/A,,Clear,330,2012-10-10 00:35:00
7:55 PM,46.6,24.1,41,30.11,10.0,NNW,3.5,-,N/A,,Clear,340,2012-10-10 00:55:00
8:15 PM,45.5,24.6,44,30.12,10.0,NNW,4.6,-,N/A,,Clear,330,2012-10-10 01:15:00
8:35 PM,45.0,24.4,45,30.13,10.0,NNW,4.6,-,N/A,,Clear,340,2012-10-10 01:35:00
8:55 PM,40.5,23.9,52,30.14,10.0,NW,4.6,-,N/A,,Clear,320,2012-10-10 01:55:00
9:15 PM,41.0,23.9,51,30.14,10.0,NW,5.8,-,N/A,,Clear,310,2012-10-10 02:15:00
9:35 PM,37.8,23.7,57,30.15,10.0,WNW,4.6,-,N/A,,Clear,300,2012-10-10 02:35:00
9:55 PM,39.2,23.9,54,30.16,10.0,NW,4.6,-,N/A,,Clear,310,2012-10-10 02:55:00
10:15 PM,37.6,23.2,56,30.16,10.0,WNW,5.8,-,N/A,,Clear,290,2012-10-10 03:15:00
10:35 PM,37.9,23.9,57,30.17,10.0,WNW,4.6,-,N/A,,Clear,290,2012-10-10 03:35:00
10:55 PM,37.6,24.1,58,30.18,10.0,WNW,6.9,-,N/A,,Clear,290,2012-10-10 03:55:00
11:15 PM,39.0,24.3,55,30.19,10.0,NNW,6.9,-,N/A,,Clear,330,2012-10-10 04:15:00
11:35 PM,39.6,24.8,56,30.20,10.0,NW,5.8,-,N/A,,Clear,320,2012-10-10 04:35:00
11:55 PM,38.5,24.8,58,30.20,10.0,NW,4.6,-,N/A,,Clear,320,2012-10-10 04:55:00